Weather Roundup
Issued by NWS

Home | Current Version | Previous Version | Graphics & Text | Print | Product List | Glossary Off
Versions: 1 2 3 4 5 6 7 8 9 10 11 12 13 14 15 16 17 18 19 20 21 22 23 24 25 26 27 28 29 30 31 32 33 34 35 36 37 38 39 40 41 42 43 44 45 46 47 48 49 50

000
NZUS93 KARX 272259
HRRWXR

CURRENT HOURLY OBSERVATIONS ACROSS
MUCH OF THE UPPER MISSISSIPPI VALLEY
NATIONAL WEATHER SERVICE LA CROSSE WI
500 PM CST FRI FEB 27 2015


...SOUTHEAST MINNESOTA...


CITY           SKY/WX    TMP DP  RH WIND       PRES   REMARKS
ROCHESTER      CLEAR      5  -3  69 W7        30.50S WCI  -7
ROCHESTER/MAYO FAIR      11   1  62 W9        30.51F WCI  -1
WINONA         CLEAR     14   0  52 SW6       30.57R WCI   5
AUSTIN         CLEAR      7  -2  66 SW7       30.51F WCI  -5
ALBERT LEA     CLEAR      9   1  72 SW7       30.50F WCI  -3
DODGE CENTER   PTCLDY     7   0  72 SW9       30.49F WCI  -7
PRESTON        CLEAR      5  -4  66 W7        30.52S WCI  -7
OWATONNA       CLEAR      9   0  66 S8        30.50F WCI  -4
FARIBAULT      CLEAR     10   0  61 S6        30.51S WCI   1
$$

...ELSEWHERE IN MINNESOTA...


CITY           SKY/WX    TMP DP  RH WIND       PRES   REMARKS
MINNEAPOLIS    CLEAR     14  -2  49 SW8       30.50F WCI   3
INTNL FALLS    PTCLDY    17  -8  32 SW12      30.30F WCI   4
DULUTH         CLEAR     18  -5  36 W16       30.34F WCI   3
RED WING       CLEAR     14  -2  48 SW7       30.52S WCI   4
REDWOOD FALLS  SUNNY     14   3  61 S8        30.48F WCI   3
MANKATO        CLEAR     10  -4  52 S10       30.51S WCI  -3
FAIRMONT       SUNNY     12   0  57 S8        30.49S WCI   1
$$

...SOUTHWEST WISCONSIN...


CITY           SKY/WX    TMP DP  RH WIND       PRES   REMARKS
LA CROSSE      CLEAR     15  -3  44 N3        30.55S
PRAIRIE DU CHI CLEAR     11  -6  46 W8        30.59S WCI  -1
BOSCOBEL       CLEAR     14  -5  42 SW9       30.58S WCI   2
LONE ROCK      NOT AVBL
PLATTEVILLE    CLEAR      9  -4  55 SW6       30.55S WCI   0
FORT MC COY    CLEAR     15  -6  39 W7        30.53F WCI   5
VIROQUA        FAIR      12  -4  48 W9        30.49S WCI  -1
WIS DELLS      NOT AVBL
$$

...ELSEWHERE IN WISCONSIN...


CITY           SKY/WX    TMP DP  RH WIND       PRES   REMARKS
MILWAUKEE      CLEAR     15  -5  40 SW14      30.55S WCI   0
MADISON        CLEAR     14  -4  44 SW7       30.53S WCI   4
GREEN BAY      CLEAR     18  -1  43 W10       30.49S WCI   6
EAU CLAIRE     CLEAR     12  -2  53 SW8       30.49F WCI   0
BLACK RVR FLS  FAIR      15  -7  37 S6        30.52S WCI   6
MEDFORD        CLEAR     10  -4  55 SW9       30.42F WCI  -4
WAUSAU         CLEAR     12  -4  48 W9        30.43F WCI   0
WIS RAPIDS     CLEAR     16  -7  35 W8        30.49S WCI   5
MARSHFIELD     CLEAR     13  -3  49 SW9       30.46S WCI   1
RICE LAKE      CLEAR     14  -3  47 SW6       30.47F WCI   5
$$

...NORTHEAST IOWA...


CITY           SKY/WX    TMP DP  RH WIND       PRES   REMARKS
DECORAH        CLEAR      7  -8  51 W8        30.53F WCI  -6
MASON CITY     CLEAR      6   0  76 S8        30.53F WCI  -7
CHARLES CITY   CLEAR      5  -4  66 SW6       30.56S WCI  -6
OELWEIN        CLEAR      5  -6  61 W5        30.57S WCI  -4
$$

...ELSEWHERE IN IOWA...


CITY           SKY/WX    TMP DP  RH WIND       PRES   REMARKS
DES MOINES     MOSUNNY   14  -3  47 CALM      30.56F
IOWA CITY      CLEAR      7  -3  64 CALM      30.64S
FORT DODGE     SUNNY      9   0  66 S6        30.54F WCI  -1
$$

...NORTHERN ILLINOIS...


CITY           SKY/WX    TMP DP  RH WIND       PRES   REMARKS
CHICAGO-OHARE  CLEAR     11  -5  48 W8        30.59R WCI  -1
CHICAGO-MIDWAY CLEAR     15  -2  46 SW10      30.61R WCI   2
MOLINE         CLEAR      9  -5  53 SW5       30.63R WCI   1
ROCKFORD       CLEAR     11  -5  48 W5        30.60S WCI   3
PEORIA         CLEAR     15  -3  44 W7        30.64R WCI   5
$$

NOTE: "FAIR" INDICATES FEW OR NO CLOUDS BELOW 12,000 FEET WITH NO
SIGNIFICANT WEATHER AND/OR OBSTRUCTIONS TO VISIBILITY. WIND
SPEEDS ARE IN MILES-PER-HOUR.



USA.gov is the U.S. government's official web portal to all federal, state and local government web resources and services.